AUA068 LFPB-EGBB

Flight info

Callsign AUA068
Flight time 0h 52m
Altitude 26000
Route OPALE DCT KESAX DCT DIMAL DCT ALESO T420 HEMEL
Aircraft B739/M-SDE2E3FGHIRWXY/LB1

Departure

Time 2026-04-18 10:17
Airport Paris-Le Bourget International Airport (LFPB)

Arrival

Time 2026-04-18 11:09
Airport Birmingham Airport (EGBB)
Time Latitude Longitude Altitude Speed Heading
2026-04-18 09:25 48.95656 2.44130 149 ft 0 kts 168°
2026-04-18 10:01 48.95662 2.44128 150 ft 0 kts 168°
2026-04-18 10:01 48.95661 2.44129 150 ft 1 kts 168°
2026-04-18 10:02 48.95635 2.44105 149 ft 6 kts 242°
2026-04-18 10:02 48.95635 2.44062 149 ft 0 kts 274°
2026-04-18 10:03 48.95657 2.44031 149 ft 2 kts 328°
2026-04-18 10:04 48.95661 2.44027 149 ft 5 kts 328°
2026-04-18 10:04 48.95709 2.43946 149 ft 12 kts 293°
2026-04-18 10:04 48.95745 2.43831 150 ft 12 kts 295°
2026-04-18 10:04 48.95790 2.43731 150 ft 12 kts 330°
2026-04-18 10:05 48.95865 2.43752 150 ft 11 kts 24°
2026-04-18 10:05 48.95934 2.43805 150 ft 11 kts 20°
2026-04-18 10:05 48.96004 2.43845 150 ft 11 kts 28°
2026-04-18 10:05 48.96068 2.43897 150 ft 10 kts 24°
2026-04-18 10:06 48.96112 2.43927 150 ft 5 kts 22°
2026-04-18 10:06 48.96145 2.43949 150 ft 5 kts 26°
2026-04-18 10:06 48.96183 2.43988 150 ft 8 kts 37°
2026-04-18 10:06 48.96223 2.44066 150 ft 11 kts 69°
2026-04-18 10:07 48.96241 2.44165 150 ft 2 kts 74°
2026-04-18 10:07 48.96248 2.44200 150 ft 5 kts 74°
2026-04-18 10:07 48.96258 2.44268 151 ft 8 kts 81°
2026-04-18 10:07 48.96267 2.44366 151 ft 11 kts 78°
2026-04-18 10:08 48.96303 2.44476 151 ft 13 kts 47°
2026-04-18 10:08 48.96367 2.44576 152 ft 13 kts 47°
2026-04-18 10:08 48.96427 2.44677 152 ft 13 kts 49°
2026-04-18 10:08 48.96464 2.44796 152 ft 12 kts 73°
2026-04-18 10:09 48.96483 2.44922 151 ft 12 kts 78°
2026-04-18 10:09 48.96505 2.45043 151 ft 12 kts 60°
2026-04-18 10:09 48.96572 2.45109 150 ft 11 kts 13°
2026-04-18 10:09 48.96649 2.45095 150 ft 11 kts 347°
2026-04-18 10:10 48.96724 2.45069 149 ft 11 kts 347°
2026-04-18 10:10 48.96796 2.45044 148 ft 11 kts 347°
2026-04-18 10:10 48.96868 2.45020 147 ft 10 kts 347°
2026-04-18 10:10 48.96936 2.44997 147 ft 10 kts 348°
2026-04-18 10:11 48.96993 2.45039 146 ft 10 kts 53°
2026-04-18 10:11 48.97023 2.45129 146 ft 9 kts 68°
2026-04-18 10:11 48.97047 2.45221 146 ft 9 kts 66°
2026-04-18 10:11 48.97071 2.45309 146 ft 9 kts 74°
2026-04-18 10:12 48.97091 2.45397 146 ft 9 kts 66°
2026-04-18 10:12 48.97116 2.45479 146 ft 8 kts 65°
2026-04-18 10:12 48.97138 2.45556 146 ft 8 kts 66°
2026-04-18 10:12 48.97160 2.45634 146 ft 8 kts 67°
2026-04-18 10:13 48.97181 2.45711 146 ft 8 kts 68°
2026-04-18 10:13 48.97201 2.45785 146 ft 7 kts 66°
2026-04-18 10:13 48.97233 2.45842 146 ft 7 kts 33°
2026-04-18 10:13 48.97275 2.45880 146 ft 7 kts 27°
2026-04-18 10:14 48.97322 2.45890 146 ft 7 kts 345°
2026-04-18 10:14 48.97359 2.45846 147 ft 7 kts 311°
2026-04-18 10:14 48.97383 2.45786 147 ft 7 kts 285°
2026-04-18 10:14 48.97374 2.45721 147 ft 5 kts 248°
2026-04-18 10:15 48.97361 2.45673 147 ft 5 kts 251°
2026-04-18 10:15 48.97349 2.45626 147 ft 4 kts 248°
2026-04-18 10:15 48.97343 2.45603 147 ft 0 kts 247°
2026-04-18 10:16 48.97341 2.45594 147 ft 7 kts 247°
2026-04-18 10:16 48.97256 2.45284 147 ft 72 kts 248°
2026-04-18 10:16 48.96961 2.44169 145 ft 151 kts 246°
2026-04-18 10:16 48.96553 2.42373 250 ft 204 kts 250°
2026-04-18 10:17 48.95966 2.40445 1052 ft 193 kts 243°
2026-04-18 10:17 48.95391 2.38708 2230 ft 175 kts 241°
2026-04-18 10:17 48.94828 2.37146 3405 ft 164 kts 238°
2026-04-18 10:17 48.94196 2.35667 4217 ft 176 kts 232°
2026-04-18 10:18 48.93482 2.33952 4664 ft 211 kts 242°
2026-04-18 10:18 48.92911 2.31716 5184 ft 238 kts 262°
2026-04-18 10:18 48.93258 2.29274 6212 ft 244 kts 301°
2026-04-18 10:18 48.94445 2.27237 6776 ft 274 kts 312°
2026-04-18 10:19 48.95803 2.24940 7059 ft 309 kts 309°
2026-04-18 10:19 48.97291 2.22214 7207 ft 353 kts 307°
2026-04-18 10:19 48.98944 2.19179 7534 ft 381 kts 313°
2026-04-18 10:19 49.01053 2.16937 9316 ft 360 kts 332°
2026-04-18 10:20 49.03352 2.15823 11105 ft 335 kts 348°
2026-04-18 10:20 49.05599 2.15600 12613 ft 314 kts 355°
2026-04-18 10:20 49.07735 2.15584 13763 ft 305 kts 355°
2026-04-18 10:20 49.09880 2.15597 14342 ft 312 kts 355°
2026-04-18 10:21 49.12065 2.15610 14925 ft 317 kts 355°
2026-04-18 10:21 49.14279 2.15612 15586 ft 319 kts 355°
2026-04-18 10:21 49.16506 2.15605 16249 ft 322 kts 355°
2026-04-18 10:21 49.18762 2.15589 16896 ft 326 kts 355°
2026-04-18 10:22 49.21038 2.15569 17525 ft 329 kts 354°
2026-04-18 10:22 49.23340 2.15546 18163 ft 332 kts 354°
2026-04-18 10:22 49.25661 2.15521 18770 ft 336 kts 354°
2026-04-18 10:22 49.28023 2.15494 19235 ft 345 kts 354°
2026-04-18 10:23 49.30498 2.15459 19337 ft 365 kts 355°
2026-04-18 10:23 49.33101 2.15426 19462 ft 382 kts 355°
2026-04-18 10:23 49.35816 2.15397 19567 ft 398 kts 355°
2026-04-18 10:23 49.38642 2.15366 19678 ft 414 kts 355°
2026-04-18 10:24 49.41572 2.15333 19774 ft 428 kts 355°
2026-04-18 10:24 49.44542 2.14931 20001 ft 430 kts 341°
2026-04-18 10:24 49.47347 2.13405 20487 ft 427 kts 334°
2026-04-18 10:24 49.50117 2.11736 20980 ft 429 kts 334°
2026-04-18 10:25 49.52913 2.10063 21440 ft 432 kts 334°
2026-04-18 10:25 49.55731 2.08398 21857 ft 435 kts 334°
2026-04-18 10:25 49.58574 2.06738 22271 ft 439 kts 335°
2026-04-18 10:25 49.61443 2.05076 22700 ft 442 kts 335°
2026-04-18 10:26 49.64325 2.03412 23121 ft 444 kts 334°
2026-04-18 10:26 49.67236 2.01730 23531 ft 448 kts 334°
2026-04-18 10:26 49.70157 2.00042 23913 ft 450 kts 334°
2026-04-18 10:26 49.73096 1.98340 24274 ft 452 kts 334°
2026-04-18 10:27 49.76048 1.96628 24671 ft 454 kts 334°
2026-04-18 10:27 49.79014 1.94905 25043 ft 455 kts 334°
2026-04-18 10:27 49.81993 1.93172 25400 ft 457 kts 334°
2026-04-18 10:27 49.84975 1.91434 25743 ft 459 kts 334°
2026-04-18 10:28 49.87977 1.89683 26099 ft 461 kts 334°
2026-04-18 10:28 49.90887 1.87640 26189 ft 456 kts 321°
2026-04-18 10:28 49.93370 1.84672 26239 ft 451 kts 315°
2026-04-18 10:28 49.95782 1.81555 26228 ft 449 kts 315°
2026-04-18 10:29 49.98184 1.78476 26236 ft 446 kts 315°
2026-04-18 10:29 50.00589 1.75455 26223 ft 443 kts 316°
2026-04-18 10:29 50.02215 1.73438 26226 ft 442 kts 316°
2026-04-18 10:29 50.04622 1.70466 26233 ft 440 kts 316°
2026-04-18 10:30 50.07075 1.67601 26233 ft 445 kts 321°
2026-04-18 10:30 50.09811 1.65229 26239 ft 455 kts 329°
2026-04-18 10:30 50.12697 1.63153 26240 ft 460 kts 330°
2026-04-18 10:30 50.15622 1.61100 26237 ft 460 kts 330°
2026-04-18 10:31 50.18529 1.59055 26238 ft 459 kts 330°
2026-04-18 10:31 50.21439 1.56985 26234 ft 459 kts 329°
2026-04-18 10:31 50.24333 1.54900 26238 ft 458 kts 329°
2026-04-18 10:31 50.27224 1.52799 26244 ft 458 kts 329°
2026-04-18 10:32 50.30104 1.50695 26245 ft 457 kts 329°
2026-04-18 10:32 50.32987 1.48585 26239 ft 457 kts 329°
2026-04-18 10:32 50.35868 1.46473 26246 ft 457 kts 329°
2026-04-18 10:32 50.38744 1.44363 26245 ft 457 kts 329°
2026-04-18 10:33 50.41636 1.42239 26276 ft 462 kts 329°
2026-04-18 10:33 50.44551 1.40095 26583 ft 464 kts 329°
2026-04-18 10:33 50.47421 1.37854 27122 ft 456 kts 323°
2026-04-18 10:33 50.50009 1.35102 27738 ft 444 kts 315°
2026-04-18 10:34 50.52254 1.31856 28225 ft 436 kts 307°
2026-04-18 10:34 50.56326 1.24708 28243 ft 436 kts 306°
2026-04-18 10:35 50.60487 1.17761 28250 ft 437 kts 309°
2026-04-18 10:35 50.64807 1.11022 28248 ft 437 kts 309°
2026-04-18 10:36 50.69110 1.04277 28249 ft 436 kts 309°
2026-04-18 10:36 50.73394 0.97485 28247 ft 436 kts 309°
2026-04-18 10:37 50.77664 0.90672 28247 ft 437 kts 309°
2026-04-18 10:37 50.81937 0.83837 28244 ft 438 kts 309°
2026-04-18 10:38 50.86218 0.76975 28244 ft 439 kts 309°
2026-04-18 10:38 50.90520 0.70108 28242 ft 440 kts 309°
2026-04-18 10:39 50.94835 0.63215 28246 ft 441 kts 309°
2026-04-18 10:39 50.99138 0.56282 28086 ft 441 kts 309°
2026-04-18 10:40 51.03419 0.49276 28030 ft 442 kts 309°
2026-04-18 10:40 51.07736 0.42232 27981 ft 443 kts 309°
2026-04-18 10:40 51.09947 0.38811 27971 ft 444 kts 311°
2026-04-18 10:41 51.12189 0.35435 27977 ft 444 kts 311°
2026-04-18 10:41 51.14444 0.32054 27963 ft 445 kts 311°
2026-04-18 10:41 51.16687 0.28674 27970 ft 444 kts 311°
2026-04-18 10:41 51.18922 0.25282 27984 ft 444 kts 310°
2026-04-18 10:42 51.21154 0.21874 28016 ft 444 kts 310°
2026-04-18 10:42 51.23243 0.18673 28235 ft 444 kts 310°
2026-04-18 10:42 51.25557 0.15118 28252 ft 444 kts 310°
2026-04-18 10:43 51.30015 0.08261 28242 ft 444 kts 310°
2026-04-18 10:43 51.34704 0.01802 28238 ft 452 kts 321°
2026-04-18 10:44 51.40148 -0.03339 28246 ft 455 kts 324°
2026-04-18 10:44 51.45619 -0.08412 28244 ft 454 kts 323°
2026-04-18 10:45 51.51059 -0.13564 28241 ft 454 kts 323°
2026-04-18 10:45 51.56495 -0.18767 28228 ft 454 kts 323°
2026-04-18 10:45 51.59239 -0.21405 27464 ft 461 kts 323°
2026-04-18 10:46 51.61943 -0.23993 26782 ft 446 kts 323°
2026-04-18 10:46 51.64570 -0.26507 26141 ft 432 kts 322°
2026-04-18 10:46 51.67113 -0.28949 25512 ft 420 kts 322°
2026-04-18 10:46 51.69649 -0.31380 24909 ft 418 kts 322°
2026-04-18 10:47 51.72148 -0.33778 24304 ft 418 kts 322°
2026-04-18 10:47 51.74659 -0.36190 23661 ft 423 kts 323°
2026-04-18 10:47 51.77201 -0.38634 22944 ft 428 kts 323°
2026-04-18 10:47 51.79758 -0.41089 22443 ft 426 kts 323°
2026-04-18 10:48 51.82296 -0.43539 22287 ft 422 kts 323°
2026-04-18 10:48 51.84777 -0.45952 22222 ft 413 kts 322°
2026-04-18 10:48 51.87221 -0.48349 22215 ft 410 kts 322°
2026-04-18 10:48 51.89667 -0.50752 22216 ft 412 kts 322°
2026-04-18 10:49 51.92116 -0.53157 22214 ft 412 kts 322°
2026-04-18 10:49 51.94566 -0.55561 22216 ft 412 kts 322°
2026-04-18 10:49 51.97026 -0.57969 22217 ft 413 kts 322°
2026-04-18 10:49 51.99485 -0.60372 22211 ft 413 kts 322°
2026-04-18 10:50 52.01950 -0.62782 22211 ft 413 kts 322°
2026-04-18 10:50 52.04415 -0.65196 22210 ft 413 kts 322°
2026-04-18 10:50 52.06874 -0.67608 22217 ft 413 kts 322°
2026-04-18 10:50 52.09334 -0.70026 22220 ft 413 kts 322°
2026-04-18 10:51 52.11791 -0.72445 22215 ft 414 kts 322°
2026-04-18 10:51 52.14251 -0.74870 22208 ft 413 kts 322°
2026-04-18 10:51 52.16712 -0.77298 22215 ft 413 kts 322°
2026-04-18 10:51 52.19172 -0.79727 22215 ft 413 kts 322°
2026-04-18 10:52 52.21620 -0.82175 22211 ft 411 kts 319°
2026-04-18 10:52 52.23692 -0.85230 22212 ft 396 kts 301°
2026-04-18 10:52 52.25129 -0.88969 22180 ft 381 kts 288°
2026-04-18 10:52 52.25930 -0.92963 21725 ft 363 kts 277°
2026-04-18 10:53 52.26482 -0.97021 20721 ft 361 kts 276°
2026-04-18 10:53 52.26984 -1.01002 19602 ft 365 kts 276°
2026-04-18 10:53 52.27500 -1.05071 18652 ft 365 kts 277°
2026-04-18 10:53 52.28034 -1.09161 17733 ft 361 kts 277°
2026-04-18 10:54 52.28565 -1.13135 16907 ft 355 kts 277°
2026-04-18 10:54 52.29093 -1.17052 16070 ft 351 kts 278°
2026-04-18 10:54 52.29615 -1.20918 15240 ft 348 kts 278°
2026-04-18 10:54 52.30134 -1.24753 14460 ft 344 kts 278°
2026-04-18 10:55 52.30645 -1.28540 13680 ft 339 kts 278°
2026-04-18 10:55 52.31148 -1.32279 12833 ft 336 kts 278°
2026-04-18 10:55 52.31647 -1.35997 12029 ft 332 kts 279°
2026-04-18 10:55 52.32135 -1.39655 11248 ft 328 kts 279°
2026-04-18 10:56 52.32620 -1.43293 10488 ft 325 kts 279°
2026-04-18 10:56 52.33097 -1.46883 9746 ft 322 kts 279°
2026-04-18 10:56 52.33569 -1.50438 9323 ft 320 kts 279°
2026-04-18 10:56 52.34042 -1.54016 9252 ft 322 kts 279°
2026-04-18 10:57 52.34514 -1.57586 9219 ft 321 kts 279°
2026-04-18 10:57 52.34983 -1.61145 9189 ft 318 kts 279°
2026-04-18 10:57 52.35442 -1.64633 9061 ft 308 kts 278°
2026-04-18 10:57 52.35974 -1.67946 8940 ft 298 kts 289°
2026-04-18 10:58 52.37103 -1.70747 8831 ft 293 kts 308°
2026-04-18 10:58 52.38670 -1.72795 8759 ft 288 kts 324°
2026-04-18 10:58 52.40517 -1.74013 8664 ft 284 kts 342°
2026-04-18 10:58 52.42471 -1.74263 8573 ft 281 kts
2026-04-18 10:59 52.44344 -1.73509 8476 ft 275 kts 21°
2026-04-18 10:59 52.45940 -1.71870 8398 ft 268 kts 40°
2026-04-18 10:59 52.47123 -1.69584 8243 ft 261 kts 60°
2026-04-18 10:59 52.47870 -1.66892 7950 ft 258 kts 74°
2026-04-18 11:00 52.48247 -1.64044 7667 ft 254 kts 90°
2026-04-18 11:00 52.48107 -1.61201 7377 ft 248 kts 106°
2026-04-18 11:00 52.47765 -1.58442 7097 ft 247 kts 107°
2026-04-18 11:00 52.47414 -1.55709 6954 ft 239 kts 107°
2026-04-18 11:01 52.47184 -1.53930 6887 ft 232 kts 107°
2026-04-18 11:01 52.46856 -1.51394 6797 ft 222 kts 107°
2026-04-18 11:01 52.46541 -1.48968 6632 ft 215 kts 108°
2026-04-18 11:02 52.45183 -1.44875 6195 ft 199 kts 139°
2026-04-18 11:02 52.44219 -1.43323 5916 ft 192 kts 150°
2026-04-18 11:02 52.43123 -1.42134 5628 ft 186 kts 161°
2026-04-18 11:02 52.41942 -1.41355 5318 ft 181 kts 172°
2026-04-18 11:03 52.40725 -1.40997 5001 ft 174 kts 182°
2026-04-18 11:03 52.39544 -1.41045 4760 ft 165 kts 193°
2026-04-18 11:03 52.38430 -1.41458 4573 ft 162 kts 202°
2026-04-18 11:03 52.37413 -1.42185 4299 ft 159 kts 211°
2026-04-18 11:04 52.36506 -1.43204 3978 ft 158 kts 220°
2026-04-18 11:04 52.35731 -1.44474 3649 ft 159 kts 229°
2026-04-18 11:04 52.35076 -1.46044 3528 ft 179 kts 237°
2026-04-18 11:04 52.34497 -1.47892 3494 ft 184 kts 242°
2026-04-18 11:05 52.34076 -1.49829 3414 ft 179 kts 250°
2026-04-18 11:05 52.33911 -1.51847 3117 ft 182 kts 265°
2026-04-18 11:05 52.34080 -1.53931 2827 ft 185 kts 274°
2026-04-18 11:05 52.34336 -1.56006 2480 ft 187 kts 274°
2026-04-18 11:06 52.34601 -1.58095 2230 ft 186 kts 275°
2026-04-18 11:06 52.34867 -1.60148 2054 ft 186 kts 274°
2026-04-18 11:06 52.35151 -1.62190 1991 ft 184 kts 283°
2026-04-18 11:06 52.35951 -1.63850 2014 ft 191 kts 315°
2026-04-18 11:07 52.36970 -1.65204 2013 ft 187 kts 311°
2026-04-18 11:07 52.37989 -1.66541 2007 ft 187 kts 316°
2026-04-18 11:07 52.39061 -1.67756 1809 ft 184 kts 318°
2026-04-18 11:07 52.40096 -1.68903 1596 ft 172 kts 317°
2026-04-18 11:08 52.41072 -1.69997 1321 ft 169 kts 319°
2026-04-18 11:08 52.42004 -1.71032 1034 ft 155 kts 319°
2026-04-18 11:08 52.42861 -1.71987 798 ft 144 kts 319°
2026-04-18 11:08 52.43657 -1.72875 581 ft 132 kts 320°
2026-04-18 11:09 52.44386 -1.73689 433 ft 124 kts 319°
2026-04-18 11:09 52.45078 -1.74474 328 ft 115 kts 331°
2026-04-18 11:09 52.45610 -1.75035 324 ft 59 kts 323°
2026-04-18 11:09 52.45881 -1.75348 317 ft 46 kts 324°
2026-04-18 11:10 52.46099 -1.75596 308 ft 14 kts 332°
2026-04-18 11:10 52.46181 -1.75540 308 ft 14 kts 51°
2026-04-18 11:10 52.46194 -1.75392 302 ft 15 kts 131°
2026-04-18 11:10 52.46113 -1.75282 305 ft 15 kts 145°
2026-04-18 11:11 52.46029 -1.75189 308 ft 14 kts 146°
2026-04-18 11:11 52.45950 -1.75100 304 ft 14 kts 146°
2026-04-18 11:11 52.45873 -1.75015 306 ft 13 kts 146°
2026-04-18 11:11 52.45800 -1.74932 309 ft 13 kts 146°
2026-04-18 11:12 52.45732 -1.74857 310 ft 12 kts 146°
2026-04-18 11:12 52.45662 -1.74778 314 ft 12 kts 146°
2026-04-18 11:12 52.45594 -1.74703 318 ft 12 kts 147°
2026-04-18 11:12 52.45531 -1.74636 322 ft 8 kts 146°
2026-04-18 11:13 52.45484 -1.74582 321 ft 8 kts 137°
2026-04-18 11:13 52.45455 -1.74505 322 ft 8 kts 117°
2026-04-18 11:13 52.45431 -1.74427 322 ft 8 kts 116°
2026-04-18 11:13 52.45407 -1.74350 321 ft 7 kts 116°
2026-04-18 11:14 52.45385 -1.74276 322 ft 7 kts 116°
2026-04-18 11:14 52.45363 -1.74204 321 ft 7 kts 116°
2026-04-18 11:14 52.45342 -1.74134 322 ft 7 kts 116°
2026-04-18 11:14 52.45321 -1.74065 321 ft 7 kts 116°
2026-04-18 11:15 52.45310 -1.74028 322 ft 0 kts 116°
2026-04-18 11:15 52.45321 -1.73963 322 ft 11 kts 39°
2026-04-18 11:15 52.45357 -1.73885 322 ft 2 kts 60°
2026-04-18 11:15 52.45365 -1.73863 322 ft 3 kts 60°
2026-04-18 11:16 52.45371 -1.73847 323 ft 0 kts 57°
2026-04-18 11:16 52.45375 -1.73834 321 ft 1 kts 57°
2026-04-18 11:16 52.45384 -1.73813 323 ft 3 kts 57°
2026-04-18 11:16 52.45379 -1.73782 323 ft 3 kts 148°
2026-04-18 11:17 52.45360 -1.73764 323 ft 3 kts 142°
2026-04-18 11:17 52.45341 -1.73743 323 ft 3 kts 146°
2026-04-18 11:17 52.45331 -1.73732 323 ft 0 kts 145°
2026-04-18 11:17 52.45323 -1.73722 322 ft 1 kts 145°
2026-04-18 11:18 52.45320 -1.73719 322 ft 1 kts 145°
2026-04-18 11:18 52.45317 -1.73716 323 ft 0 kts 145°